Location: B�hl
(48.6968°N, 8.1352°E)
Time: 00:26:31
(UTC+00:00)

Resurs 01 Rocket - Pass Details

Date: 08 March 2021
Orbit: 635 x 643 km, 98.0° (Epoch: 14 April)

Event Time Altitude Azimuth Distance (km) Brightness Sun altitude
Exits shadow 21:09:15 18° 290° (WNW) 1,545 4.1 -35.7°
Drops below altitude 10° 21:11:22 10° 317° (NW) 2,034 5.0 -36.0°
Sets 21:14:05 0° 334° (NNW) 2,950 5.9 -36.3°
